STARLINK-11080 [DTC] (60727 NORAD) Tracking and Keplerian Element Data

This shows tracking and keplerian element data for the satellite.

Feedback or suggestion? Click here.




ElementValue
Catalog60727
NameSTARLINK-11080 [DTC]
Epoch Orbit841
Epoch Day286.81718847
Epoch Year2024
RAAN124.4528
Inclination53.1599
Eccentricity0.0001457
Argument of Perigee127.4472
Mean Anonmoly232.6678
Mean Motion15.69761601
Decay Rate5.746E-05
L11 60727U 24152H 24286.81718847 .00005746 00000+0 52147-4 0 9996
L22 60727 53.1599 124.4528 0001457 127.4472 232.6678 15.69761601 8415



Live tracking and technical data element details for STARLINK-11080 [DTC] (NORAD 60727). STARLINK-11080 [DTC] can be tracked NOW for your location showing map with azimuth and elevation plus other details from your city location.







IsCatalogInMostPopularTable: catalog: 60727, numindb: 7
Update: records affected: 1



GetName: 60727 STARLINK-11080 [DTC]

Hit Count: updated at: Wed, 04 Dec 2024 19:00:42 GMT